Lapse_Rate
4.3 4.3 4.4 4.4 4.3 4.2 4.1 4.1 3.9 4.2 5.0 5.5 5.7 5.8 5.5 5.1 4.5 4.3 4.9 5.4 5.6 5.9 6.0 6.1 6.3 6.3 6.4 6.3 6.1 6.0 5.7 5.9 5.3 5.5 5.2 5.5 5.8 5.6
4.2 4.2 4.3 4.4 4.5 4.6 4.5 4.4 4.3 4.2 4.4 4.8 5.3 5.5 5.8 5.9 5.6 5.1 4.6 4.5 5.2 5.6 5.8 6.0 6.0 6.1 6.3 6.5 6.4 6.3 6.1 6.0 5.4 5.6 5.9 5.9 5.8 5.6
4.1 4.1 4.1 4.1 4.2 4.4 4.6 4.5 4.4 4.4 4.4 4.6 4.5 4.9 5.5 5.7 5.8 5.8 5.5 5.2 4.7 5.0 5.5 5.7 5.9 6.1 6.0 6.3 6.5 6.5 6.4 6.1 6.1 6.0 6.2 5.8 5.9 5.8
4.1 4.1 4.0 4.0 4.1 4.1 4.2 4.4 4.6 4.6 4.6 4.7 4.4 4.7 4.9 5.3 5.7 5.7 5.8 5.4 5.2 5.0 5.0 5.4 5.5 5.8 6.0 6.0 6.2 6.3 6.4 6.4 6.4 6.2 6.4 5.9 5.7 5.7
3.9 3.9 3.8 3.6 3.5 3.3 3.3 3.4 3.5 3.8 4.1 4.3 4.5 4.1 4.1 4.5 5.1 5.4 5.3 5.7 5.6 5.2 5.0 5.2 5.3 5.5 5.8 5.9 5.9 6.2 6.2 6.4 6.4 6.4 6.5 6.6 6.0 6.4
3.1 2.9 2.7 2.5 2.3 2.4 2.5 2.7 2.7 2.7 2.8 3.2 3.7 3.7 3.4 3.4 3.6 4.3 5.2 4.7 5.3 5.6 5.4 4.9 5.0 5.4 5.7 5.8 5.8 5.8 6.1 6.2 6.3 6.4 6.5 6.5 6.8 6.5
2.5 2.2 1.9 1.7 1.5 1.3 1.3 1.4 1.7 2.0 2.2 2.1 2.4 2.8 3.0 2.8 2.6 2.7 3.3 4.3 4.5 4.9 5.3 5.3 4.6 4.7 5.2 5.3 5.6 5.7 5.8 6.0 6.1 6.3 6.4 6.5 6.6 6.8
1.9 1.9 1.7 1.8 1.9 1.8 1.8 1.8 1.7 1.7 1.7 1.8 1.9 2.0 2.3 2.5 2.6 2.5 2.3 2.5 3.4 3.2 4.4 5.1 5.0 4.5 4.7 5.2 5.2 5.3 5.3 5.4 5.9 6.0 6.2 6.2 6.3 6.4
2.3 2.3 2.2 2.2 2.1 2.1 2.3 2.9 3.5 3.9 4.0 3.8 3.9 4.3 4.1 3.9 3.6 3.4 2.9 2.4 2.1 2.1 3.1 4.2 4.5 4.8 4.1 4.4 4.9 5.1 5.2 5.2 5.4 5.7 5.8 6.1 6.3 6.3
2.4 2.7 3.3 3.8 3.9 4.0 4.0 4.2 4.8 5.4 5.7 5.5 5.5 5.7 5.8 5.6 5.2 4.7 3.9 3.3 2.8 2.2 2.1 2.9 3.7 4.2 4.2 3.9 4.4 4.8 4.9 5.1 5.3 5.5 5.5 5.6 5.9 6.1
3.9 4.2 4.6 4.9 5.0 5.1 5.0 5.0 5.3 6.0 6.2 6.4 6.5 6.6 6.5 6.3 6.1 5.8 5.4 4.6 3.7 3.0 2.7 2.1 3.0 3.5 3.9 4.0 4.0 4.4 4.6 4.8 5.1 5.4 5.5 5.5 5.6 5.8
4.9 5.4 5.4 5.3 5.3 5.4 5.4 5.2 5.2 6.2 6.6 7.1 7.2 7.3 7.2 7.2 6.9 6.3 6.0 5.6 5.2 4.4 4.3 3.1 2.6 2.9 3.0 3.8 3.9 4.2 4.4 4.6 4.8 5.2 5.5 5.5 5.6 5.6
5.6 5.6 5.5 5.5 5.7 5.9 5.8 5.5 5.4 5.8 6.7 7.0 7.4 7.7 8.0 8.0 7.7 7.2 6.9 6.7 6.4 5.8 6.2 5.2 3.9 3.4 3.1 3.5 3.9 3.9 4.0 4.5 4.7 4.9 5.3 5.5 5.5 5.6
5.8 5.9 6.0 6.0 6.2 6.1 6.0 6.1 6.0 6.1 6.5 7.0 7.3 7.6 7.8 7.8 7.7 7.6 7.8 7.6 7.3 6.8 7.0 6.3 5.5 4.9 3.8 3.5 4.0 3.9 3.6 4.2 4.6 4.6 5.0 5.3 5.4 5.6
6.0 6.2 6.3 6.2 6.1 6.2 6.2 6.3 6.3 6.5 6.6 6.8 7.1 7.4 7.4 7.5 7.7 7.9 7.7 7.5 7.5 7.6 7.2 6.9 6.4 6.3 5.2 4.2 3.9 3.7 3.7 4.2 4.3 4.5 4.7 5.1 5.3 5.5
6.3 6.4 6.3 6.1 6.1 6.1 6.1 6.3 6.5 6.3 6.3 6.5 6.8 7.0 7.1 7.4 7.5 7.5 7.4 7.3 7.7 8.0 7.4 6.7 6.6 6.3 5.7 5.1 3.9 3.7 3.4 3.7 4.1 4.4 4.7 4.8 5.1 5.3
5.8 5.8 5.7 5.6 5.7 5.7 5.8 5.9 6.1 6.2 6.1 6.2 6.4 6.7 7.1 7.3 7.4 7.5 7.4 7.4 7.8 8.0 7.9 7.1 6.6 6.4 6.0 5.5 4.5 4.1 4.3 4.3 4.4 4.6 4.9 4.9 5.0 5.2
5.7 5.6 5.7 5.6 5.5 5.5 5.6 5.8 5.9 6.2 6.2 6.5 6.5 7.0 7.3 7.4 7.6 7.7 7.3 7.4 7.9 8.0 8.2 7.9 7.1 6.8 6.4 6.1 5.9 5.7 5.5 5.9 5.9 5.0 4.8 5.0 5.0 5.0
5.7 5.6 5.5 5.5 5.5 5.5 5.5 5.6 6.0 6.2 6.5 6.8 6.9 7.1 7.3 7.6 7.6 7.7 7.5 7.4 7.5 7.9 7.9 8.2 8.0 8.0 7.8 7.3 7.8 7.5 7.9 7.6 6.8 5.9 4.9 5.1 5.1 4.9
5.6 5.6 5.6 5.5 5.5 5.5 5.5 5.6 5.7 6.0 6.5 6.6 6.8 7.1 7.4 7.6 7.7 7.5 7.7 7.8 7.8 7.7 8.0 7.8 8.0 8.0 8.2 8.2 8.6 8.3 8.0 7.7 7.4 7.0 6.4 5.6 5.5 5.3
5.7 5.7 5.7 5.6 5.6 5.6 5.5 5.6 5.7 5.9 6.1 6.6 6.7 7.1 7.4 7.6 7.7 7.7 7.6 7.7 7.8 7.7 7.7 7.8 7.9 8.1 8.0 7.9 7.9 8.2 8.0 7.7 7.3 7.1 6.9 6.7 6.6 6.6
5.7 5.9 5.9 5.9 5.8 5.8 5.7 5.7 5.7 5.8 6.0 6.2 6.7 7.0 7.5 7.5 7.7 7.8 7.7 7.6 7.5 7.6 7.8 7.7 7.7 7.6 7.7 7.8 7.8 7.7 7.6 7.3 7.0 6.9 6.9 6.9 7.0 7.0
5.7 5.8 5.9 5.9 5.9 5.9 6.0 5.9 5.9 5.9 5.9 6.0 6.3 6.8 7.3 7.7 7.5 7.7 7.8 7.8 7.7 7.7 7.8 7.8 7.6 7.5 7.4 7.5 7.4 7.4 7.3 7.3 7.1 6.9 6.8 6.8 6.8 7.0
Wind_Speed
3 3 2 2 3 3 4 4 4 6 10 5 4 14 16 16 20 22 20 21 26 22 20 24 19 15 14 11 8 5 4 3 7 11 12 9 10 11
3 4 4 3 4 3 4 4 5 6 8 7 9 10 12 17 18 19 23 27 22 24 20 20 24 21 16 14 12 8 4 3 4 5 8 9 9 10
4 4 5 5 4 5 5 5 6 7 10 9 7 8 10 10 15 20 19 21 20 21 23 22 21 25 22 17 15 12 8 4 2 5 6 6 8 7
5 5 5 8 9 7 6 8 8 9 9 14 9 6 8 10 15 11 17 21 19 24 28 28 26 22 21 22 20 16 12 8 4 4 4 3 4 2
5 5 7 8 8 6 8 8 7 7 8 9 10 8 8 8 10 11 9 16 20 22 23 24 25 21 19 20 23 22 17 13 9 7 5 3 3 2
5 5 7 7 8 8 8 7 9 8 8 8 9 9 8 9 9 9 9 8 10 19 22 21 25 23 21 21 23 24 23 17 13 11 8 6 4 3
6 6 9 12 19 15 6 7 8 7 7 8 9 10 9 8 10 9 10 9 10 9 10 10 11 14 15 16 18 22 24 22 18 15 11 9 6 3
6 6 9 15 14 17 18 20 13 9 11 8 10 11 14 11 10 10 10 10 11 10 6 9 13 10 13 14 17 23 24 25 22 19 15 11 7 4
7 7 8 9 13 9 15 18 17 18 12 11 14 14 15 13 12 13 13 11 12 9 10 12 9 10 14 17 19 23 24 25 24 21 18 14 11 9
8 8 9 10 8 11 11 12 13 11 10 8 12 13 14 15 13 13 14 14 12 11 12 13 10 11 10 18 20 23 24 24 25 23 20 15 12 10
8 9 8 10 15 20 13 13 13 13 18 23 25 28 29 28 26 10 11 11 12 11 9 11 12 12 10 12 17 19 23 23 25 24 21 17 14 10
9 8 13 12 18 20 14 12 11 14 13 13 14 17 21 20 24 15 11 11 12 12 13 11 12 9 7 9 11 14 15 22 24 24 23 20 17 9
8 8 7 16 19 21 19 10 12 13 14 12 10 9 8 8 8 12 13 12 13 15 15 12 11 11 11 11 3 7 9 9 14 18 24 23 20 13
10 8 9 17 19 21 16 15 18 11 8 8 8 8 9 9 10 11 19 20 22 20 22 16 11 12 11 11 12 4 5 7 11 9 11 16 19 15
8 13 21 22 23 15 15 17 13 6 6 7 7 8 8 11 13 13 17 23 22 23 22 21 14 14 11 11 10 5 5 5 9 10 7 8 7 8
9 8 10 12 11 8 7 8 6 5 5 7 7 8 8 9 10 11 13 15 14 7 6 10 12 13 10 10 9 8 7 6 8 8 8 7 10 10
15 9 8 7 6 7 6 5 6 4 6 7 7 8 8 9 10 10 12 14 13 6 5 5 9 10 9 8 10 8 10 4 10 8 8 7 6 6
10 7 6 5 6 6 6 6 5 5 7 7 6 7 8 9 10 10 11 13 12 8 1 6 6 6 5 4 11 8 5 7 9 11 9 8 6 4
8 8 8 7 7 8 8 7 6 5 7 7 7 7 8 8 11 10 9 10 12 10 8 4 2 5 8 3 1 8 7 9 7 8 8 7 6 8
8 8 8 8 8 9 8 8 6 6 7 7 7 7 6 8 9 9 9 10 9 8 9 10 8 7 4 4 4 2 13 10 8 7 5 3 6 11
9 9 9 9 9 9 8 8 8 7 7 6 5 6 6 7 8 8 8 10 9 8 9 10 9 9 2 1 8 7 7 19 6 8 5 6 4 3
9 10 10 9 9 9 8 7 7 7 7 6 6 5 5 6 7 6 7 7 7 6 5 6 8 8 8 7 8 6 5 5 17 20 15 7 4 4
11 11 10 10 9 9 9 8 8 7 7 7 6 6 4 4 4 5 6 6 7 7 7 5 5 5 6 5 5 4 5 4 3 5 4 12 11 12
Wind_Direction
349 336 319 304 319 314 315 308 303 309 313 321 340 331 327 332 328 324 319 317 320 317 300 306 290 282 283 281 290 308 330 338 319 332 338 308 246 209
343 333 322 294 302 294 294 293 287 284 286 308 295 302 314 323 319 333 322 319 310 308 306 305 294 280 274 268 271 273 280 310 321 329 333 326 297 227
323 317 305 304 300 308 301 298 296 290 288 294 283 283 317 305 307 312 311 306 305 300 300 300 299 288 274 259 252 258 264 263 283 301 318 331 309 322
301 309 305 321 305 302 300 304 293 287 286 290 294 293 290 292 299 295 301 303 302 302 300 294 291 284 272 268 252 241 240 236 224 239 263 316 337 345
294 294 296 303 297 298 296 294 299 308 317 306 303 297 290 286 286 290 294 300 298 295 306 310 293 278 270 263 255 246 236 228 219 212 209 242 288 349
272 272 281 287 283 293 296 316 306 298 298 293 294 298 295 295 282 284 292 294 302 301 300 296 295 291 286 267 250 240 238 233 226 217 201 203 230 259
269 273 283 289 301 306 299 301 294 293 297 299 298 295 288 294 288 290 285 288 292 293 288 285 287 289 284 273 253 233 230 230 226 220 211 203 204 234
266 269 271 287 282 290 289 296 296 294 293 293 290 285 286 281 282 279 282 286 287 289 290 303 311 301 298 286 260 238 226 224 216 214 209 205 204 209
263 268 276 278 283 277 281 289 291 290 281 277 280 276 281 279 280 280 275 271 271 273 279 285 288 287 287 287 264 257 239 220 209 206 205 200 197 200
267 269 269 277 273 278 280 282 286 290 285 282 277 276 269 274 265 266 270 273 275 264 254 267 273 273 278 276 270 257 240 215 203 202 202 204 201 195
280 273 269 275 276 288 289 286 288 292 293 294 294 292 288 281 273 270 264 265 270 263 241 243 260 266 265 270 265 247 241 216 198 194 196 196 192 183
290 279 277 280 283 285 285 289 293 296 304 302 300 296 290 280 271 259 265 264 263 269 250 241 244 248 265 243 246 241 231 215 198 189 186 185 181 166
299 298 292 288 292 296 301 297 291 299 303 300 294 302 307 298 285 281 275 272 271 265 259 240 235 233 232 258 274 232 201 191 197 192 182 178 176 168
304 298 290 294 300 303 302 296 302 305 294 287 289 304 307 306 296 291 285 274 261 256 266 249 237 214 222 231 238 215 221 194 175 181 176 173 176 174
297 295 306 309 306 306 298 301 306 292 290 301 301 301 304 301 300 294 297 291 285 271 255 243 223 207 214 224 227 208 179 190 172 166 169 157 165 163
305 308 296 296 296 288 293 296 287 270 287 294 293 297 298 303 305 306 306 308 304 272 252 217 195 196 208 222 234 211 201 171 167 162 148 148 159 164
318 311 304 300 300 301 294 284 288 285 308 301 297 306 308 309 308 315 312 314 325 265 232 191 192 192 211 220 219 224 199 151 160 145 145 152 159 168
323 314 307 297 296 299 298 308 294 293 303 300 300 307 312 311 311 315 321 326 334 339 229 168 191 187 200 232 237 208 206 152 151 151 150 152 158 173
325 322 315 310 312 312 307 302 295 290 299 295 308 310 319 327 320 320 327 334 342 358 11 38 107 177 180 188 49 78 142 135 132 138 155 160 159 174
324 321 321 323 322 318 319 320 314 313 307 324 314 308 323 327 323 329 331 337 347 354 10 22 22 16 101 125 114 84 100 122 143 138 124 82 78 104
329 324 319 315 315 316 314 308 307 302 302 303 311 328 320 322 320 331 338 338 347 2 9 10 355 347 11 56 77 68 53 52 83 142 130 117 115 114
325 320 318 316 314 311 309 307 303 306 312 307 301 304 300 308 309 332 343 359 359 4 358 353 358 14 38 61 69 73 74 60 66 64 72 98 146 147
320 316 313 310 306 307 307 305 305 304 305 309 308 294 300 313 338 358 354 1 11 10 14 9 10 17 32 41 56 56 61 61 53 76 58 37 84 98